Location: Elbart
(49.6135°N, 11.9134°E)
Time: 01:16:28
(UTC+00:00)

APEX - Pass Details

Date: 09 April 2020
Orbit: 331 x 1113 km, 69.9° (Epoch: 30 May)

Event Time Altitude Azimuth Distance (km) Brightness Sun altitude
Rises 18:29:06 0° 328° (NNW) 3,841 8.5 -5.8°
Reaches altitude 10° 18:31:56 10° 328° (NNW) 2,805 7.8 -6.3°
Maximum altitude 18:38:32 84° 241° (WSW) 896 4.4 -7.3°
Drops below altitude 10° 18:43:52 10° 154° (SSE) 2,283 6.0 -8.1°
Enters shadow 18:45:31 - 154° (SSE) 2,909 6.6 -8.3°
